Fort Smith, AR

8:38 AM CST on February 22, 2017 (GMT -0600)
Fort Smith Regional

Weather History for KFSM - April, 2013

Change the Weather History Date:

Monday, April 22, 2013

  Actual Average Record
Temperature  
Mean Temperature 63 °F 64 °F  
Max Temperature 78 °F 75 °F 92 °F (1989)
Min Temperature 48 °F 52 °F 33 °F (1982)
Degree Days  
Heating Degree Days 2 4  
Month to date heating degree days 137 132  
Since 1 July heating degree days 2929 3191  
Cooling Degree Days 0 2  
Month to date cooling degree days 56 34  
Year to date cooling degree days 59 46  
Growing Degree Days 13 (Base 50)    
Moisture  
Dew Point 43 °F    
Average Humidity 53    
Maximum Humidity 77    
Minimum Humidity 29    
Precipitation  
Precipitation 0.00 in 0.15 in 4.30 in (1885)
Month to date precipitation 2.62 3.02  
Year to date precipitation 14.47 12.44  
Sea Level Pressure  
Sea Level Pressure 30.04 in    
Wind  
Wind Speed 6 mph (ESE)    
Max Wind Speed 17 mph    
Max Gust Speed 23 mph    
Visibility 10 miles    
Events      
T = Trace of Precipitation, MM = Missing Value Source: NWS Daily Summary

Daily Weather History Graph

Daily Weather History Graph

Search for Another Location

Airport or City:

Trip Planner

Search our weather history database for the weather conditions in past years. The results will help you decide how hot, cold, wet, or windy it might be!

Date:

Astronomy

Apr. 22, 2013 Rise Set
Actual Time 6:36 AM CDT 7:56 PM CDT
Civil Twilight 6:09 AM CDT 8:23 PM CDT
Nautical Twilight 5:37 AM CDT 8:54 PM CDT
Astronomical Twilight 5:04 AM CDT 9:28 PM CDT
Moon 4:52 PM CDT 4:23 AM CDT
Length of Visible Light 14h 13m
Length of Day
13h 20m
Waxing Gibbous, 88% of the Moon is Illuminated
Apr 22
Waxing Gibbous
Apr 25
Full
May 2
Last Quarter
May 9
New
May 17
First Quarter

Hourly Weather History & Observations

Time (CDT) Temp. Dew Point Humidity Pressure Visibility Wind Dir Wind Speed Gust Speed Precip Events Conditions
12:53 AM 52.0 °F 43.0 °F 71% 30.19 in 10.0 mi NE 3.5 mph - N/A   Clear
1:53 AM 52.0 °F 43.0 °F 71% 30.18 in 10.0 mi NE 4.6 mph - N/A   Clear
2:53 AM 50.0 °F 42.1 °F 74% 30.16 in 10.0 mi ENE 5.8 mph - N/A   Clear
3:53 AM 51.1 °F 42.1 °F 71% 30.14 in 10.0 mi NE 3.5 mph - N/A   Clear
4:53 AM 50.0 °F 42.1 °F 74% 30.13 in 10.0 mi ENE 4.6 mph - N/A   Clear
5:53 AM 48.9 °F 41.0 °F 74% 30.13 in 10.0 mi ENE 4.6 mph - N/A   Clear
6:53 AM 50.0 °F 41.0 °F 71% 30.14 in 10.0 mi East 3.5 mph - N/A   Clear
7:53 AM 52.0 °F 44.1 °F 74% 30.15 in 10.0 mi East 5.8 mph - N/A   Clear
8:53 AM 55.9 °F 43.0 °F 62% 30.15 in 10.0 mi ENE 8.1 mph - N/A   Clear
9:53 AM 60.1 °F 43.0 °F 53% 30.14 in 10.0 mi East 5.8 mph - N/A   Clear
10:53 AM 66.0 °F 42.1 °F 42% 30.12 in 10.0 mi ESE 10.4 mph 16.1 mph N/A   Clear
11:53 AM 70.0 °F 41.0 °F 35% 30.09 in 10.0 mi SSE 5.8 mph - N/A   Clear
12:53 PM 73.0 °F 43.0 °F 34% 30.04 in 10.0 mi ESE 6.9 mph - N/A   Clear
1:53 PM 73.9 °F 42.1 °F 32% 30.00 in 10.0 mi SSE 6.9 mph 18.4 mph N/A   Clear
2:53 PM 75.9 °F 44.1 °F 32% 29.96 in 10.0 mi Variable 6.9 mph 21.9 mph N/A   Clear
3:53 PM 77.0 °F 42.1 °F 29% 29.92 in 10.0 mi SSE 9.2 mph 19.6 mph N/A   Clear
4:53 PM 77.0 °F 43.0 °F 30% 29.91 in 7.0 mi SSE 11.5 mph 18.4 mph N/A   Partly Cloudy
5:53 PM 77.0 °F 43.0 °F 30% 29.90 in 10.0 mi South 13.8 mph - N/A   Clear
6:53 PM 75.9 °F 44.1 °F 32% 29.89 in 10.0 mi SSE 11.5 mph 18.4 mph N/A   Clear
7:53 PM 72.0 °F 44.1 °F 37% 29.90 in 10.0 mi SSE 5.8 mph - N/A   Clear
8:53 PM 69.1 °F 44.1 °F 40% 29.92 in 10.0 mi SSE 3.5 mph - N/A   Clear
9:53 PM 64.0 °F 48.0 °F 56% 29.94 in 10.0 mi East 3.5 mph - N/A   Clear
10:53 PM 63.0 °F 48.0 °F 58% 29.94 in 10.0 mi Calm Calm - N/A   Clear
11:53 PM 62.1 °F 48.9 °F 62% 29.94 in 10.0 mi NE 4.6 mph - N/A   Clear